Regional Weather Roundup
Issued by NWS Charleston, WV

Home | Current Version | Previous Version | Text Only | Print | Product List | Glossary Off
Versions: 1 2 3 4 5 6 7 8 9 10 11 12 13 14 15 16 17 18 19 20 21 22 23 24 25 26 27 28 29 30 31 32 33 34 35 36 37 38 39 40 41 42 43 44 45 46 47 48 49 50

000
ASUS41 KRLX 040310
RWRRLX
West Virginia Regional Weather Roundup
National Weather Service Charleston WV
1100 PM EDT MON AUG 03 2015

Note: "fair" indicates few or no clouds below 12,000 feet with no
significant weather and/or obstructions to visibility.

WVZ003-040400-
Northern Panhandle of West Virginia

CITY           SKY/WX    TMP DP  RH WIND       PRES   REMARKS
WHEELING       PTCLDY    74  66  76 SW7       29.86R
$$

WVZ009-040400-
Northwest West Virginia

CITY           SKY/WX    TMP DP  RH WIND       PRES   REMARKS
PARKERSBURG    PTCLDY    75  67  76 SW3       29.91R
$$

WVZ006-040400-
Western West Virginia

CITY           SKY/WX    TMP DP  RH WIND       PRES   REMARKS
HUNTINGTON     TSTM      71  64  78 SW9       29.90S
$$

WVZ015-040400-
West Central West Virginia

CITY           SKY/WX    TMP DP  RH WIND       PRES   REMARKS
CHARLESTON     CLOUDY    79  67  66 S5        29.90R THUNDER
$$

WVZ022-031-040400-
North Central West Virginia

CITY           SKY/WX    TMP DP  RH WIND       PRES   REMARKS
CLARKSBURG     MOCLDY    73  65  75 SW6       29.89R
MORGANTOWN     PTCLDY    78  60  53 S6        29.89R
$$

WVZ025-035-042-045-040400-
Southern West Virginia

CITY           SKY/WX    TMP DP  RH WIND       PRES   REMARKS
BECKLEY        MOCLDY    71  61  70 SW6       30.02R
LOGAN          NOT AVBL
BLUEFIELD      PTCLDY    73  59  61 W5        30.07R
LEWISBURG      PTCLDY    69  61  75 CALM      30.01R
$$

WVZ047-040400-
Northern Mountains of West Virginia

CITY           SKY/WX    TMP DP  RH WIND       PRES   REMARKS
ELKINS         MOCLDY    67  61  81 CALM      29.96R
$$

WVZ052-040400-
Eastern Panhandle of West Virginia

CITY           SKY/WX    TMP DP  RH WIND       PRES   REMARKS
MARTINSBURG    PTCLDY    74  65  73 CALM      29.84R
PETERSBURG     PTCLDY    67  62  82 CALM      29.89R
$$



USA.gov is the U.S. government's official web portal to all federal, state and local government web resources and services.